Other Public Products
Issued by NWS Grand Forks, ND

Home | Current Version | Previous Version | Graphics & Text | Print | Product List | Glossary On
Versions: 1 2 3 4 5 6 7 8 9 10 11 12 13 14 15 16 17 18 19 20 21 22 23 24 25 26 27 28 29 30 31 32 33 34 35 36 37 38 39 40 41 42 43 44 45 46 47 48 49 50
947
FPUS83 KFGF 222310
OPUFGF
PRAIRIE TO PINES WEATHER ROUNDUP
NATIONAL WEATHER SERVICE EASTERN NORTH DAKOTA/GRAND FORKS ND
500 PM CST SUN JAN 22 2017

 **SATELLITE DATA USED TO AUGMENT SKY COVER AT AUTOMATED STATIONS**
 *****  WEATHER ACROSS EASTERN NORTH DAKOTA  *****

CITY           SKY/WX    TMP DP  RH WIND       PRES   REMARKS
GRAND FORKS    CLOUDY    33  28  81 W5        29.75R
GRAND FORKS AF CLOUDY    32  28  86 NW5       29.75R
GRAND CITY NWS NOT AVBL
BUXTON         NOT AVBL
DEVILS LAKE    MOCLDY    28  24  85 NW10      29.75R WCI  19
FARGO          CLOUDY    35  31  85 W7        29.76S
WAHPETON ARPT  CLOUDY    32  32 100 W6        29.78R
$$

 *****  WEATHER ACROSS CENTRAL AND WESTERN NORTH DAKOTA  *****

CITY           SKY/WX    TMP DP  RH WIND       PRES   REMARKS
JAMESTOWN      CLOUDY    32  29  88 NW14      29.76R WCI  22
BISMARCK       CLOUDY    32  28  85 W13       29.82R WCI  22
MINOT          CLOUDY    32  29  88 W10       29.76R WCI  24
MINOT AFB      CLOUDY    31  27  86 NW12      29.76R WCI  22
GARRISON         N/A     31  27  85 W10       29.78R WCI  22
WILLISTON      CLOUDY    30  25  81 W9        29.81R WCI  22
DICKINSON      CLOUDY    27  23  85 NW18      29.79R WCI  14
HETTINGER      CLOUDY    26  22  84 W20       29.83S WCI  12
$$

 *****  OTHER OBSERVATIONS NORTHEAST NORTH DAKOTA  *****

CITY           SKY/WX    TMP DP  RH WIND       PRES   REMARKS
WALHALLA       NOT AVBL
LANGDON        NOT AVBL
CAVALIER       CLOUDY    34  32  93 W6        29.74R FOG
GRAFTON        CLOUDY    34  34 100 CALM      29.76R FOG
CANDO          NOT AVBL
FORT TOTTEN      N/A     29  25  86 NW6       29.95S WCI  23
ROLLA            N/A    N/A N/A N/A MISG        N/A
RUGBY            N/A     30  28  93 NW16      29.76S WCI  19
 ***** THE ABOVE OBSERVATIONS ARE NON NWS ARE NOT QUALITY
        CONTROLLED AND MAY MIS-REPORT RAIN FOR SNOW...
$$

 *****  OTHER OBSERVATIONS SOUTHEAST NORTH DAKOTA *****

CITY           SKY/WX    TMP DP  RH WIND       PRES   REMARKS
COOPERSTOWN    CLOUDY    30  28  93 NW10      29.75R FOG     WCI  21
VALLEY CITY    CLOUDY    32  32 100 NW14      29.78R WCI  22
OAKES          NOT AVBL
GWINNER        CLOUDY    34  34 100 W8        29.79R
BUFFALO        NOT AVBL
WYNDMERE       NOT AVBL
 ***** THE ABOVE OBSERVATIONS ARE NON NWS ARE NOT QUALITY
       CONTROLLED AND MAY MIS-REPORT RAIN FOR SNOW...
$$

  *****  WEATHER ACROSS NORTHERN MINNESOTA  *****

CITY           SKY/WX    TMP DP  RH WIND       PRES   REMARKS
FLAG ISLAND    CLOUDY    34  32  93 S3        29.72R FOG
WARROAD        CLOUDY    34  30  86 CALM      29.73R
ROSEAU         HAZE      36  30  80 CALM      29.72S VSB 1/4
HALLOCK        SNOW      34  34 100 CALM      29.74R VSB<1/4
THF RVR FALLS  LGT SNOW  30  30 100 W7        29.75S VSB 1   WCI  23
HALSTAD        NOT AVBL
FOSSTON        FOG       30  30 100 CALM      29.74S VSB 1/2
BAUDETTE       CLOUDY    34  33  96 CALM      29.71S
WASKISH        CLOUDY    34  34 100 CALM      29.72S FOG
CROOKSTON      CLOUDY    32  32 100 W7        29.76S FOG
$$
  *****  WEATHER ACROSS CENTRAL AND WEST MINNESOTA  *****

CITY           SKY/WX    TMP DP  RH WIND       PRES   REMARKS
BEMIDJI        CLOUDY    34  34  99 W3        29.73R FOG
PARK RAPIDS    FOG       34  31  88 NW8       29.72S VSB 1
WADENA         FOG       32  32 100 W6        29.73S VSB 1/4
DETROIT LAKES  CLOUDY    32  32 100 W5        29.75S FOG
MOORHEAD       CLOUDY    34  30  86 SW3       29.77S FOG
FERGUS FALLS   CLOUDY    32  32 100 NW7       29.80S FOG
ELBOW LAKE     CLOUDY    31  31 100 NW5       29.77S FOG
MORRIS MN      CLOUDY    34  32  93 NW7       29.77S FOG
STAPLES        FOG       34  34 100 W6        29.73S VSB 1/2
WHEATON        CLOUDY    39  39 100 W6        29.80S FOG
$$
  *****  WEATHER ELSEWHERE ACROSS MINNESOTA  *****

CITY           SKY/WX    TMP DP  RH WIND       PRES   REMARKS
DULUTH         CLOUDY    36  34  92 NW5       29.69R FOG
INTRNTL FALLS  CLOUDY    35  34  96 CALM      29.71R FOG
ELY            CLOUDY    34  34 100 CALM      29.69R FOG
CLOQUET        CLOUDY    36  36 100 CALM      29.70R FOG
BRAINERD       CLOUDY    36  34  92 W5        29.73R
HIBBING        CLOUDY    34  34 100 CALM      29.70R
ALEXANDRIA     FOG       32  32 100 W9        29.76R VSB 1/2 WCI  24
SAINT CLOUD    CLOUDY    36  35  96 W8        29.74R
MINNEAPOLIS    CLOUDY    39  34  82 NW7       29.74R
$$

  *****  WEATHER ACROSS SOUTH DAKOTA  *****

CITY           SKY/WX    TMP DP  RH WIND       PRES   REMARKS
SIOUX FALLS    CLOUDY    30  28  92 NW16G22   29.83R FOG     WCI  19
BROOKINGS      CLOUDY    29  27  92 NW14      29.79R WCI  18
WATERTOWN      CLOUDY    29  27  92 NW10      29.78R WCI  20
HURON          CLOUDY    30  27  88 NW15      29.85S WCI  19
SISSETON         N/A     34  31  88 NW8       29.78R
ABERDEEN       CLOUDY    30  25  81 NW13      29.83R WCI  20
MITCHELL       CLOUDY    32  28  85 NW17      29.87R WCI  21
PIERRE         CLOUDY    29  25  85 NW9       29.88R WCI  20
MOBRIDGE       CLOUDY    30  25  81 NW12      29.82R WCI  20
RAPID CITY     FAIR      38  24  57 S3        29.83F
$$

  *****  SOME WEATHER IN NEARBY STATES *****

CITY           SKY/WX    TMP DP  RH WIND       PRES   REMARKS
GLASGOW MT     CLOUDY    31  25  78 W8        29.81R WCI  23
GREAT FALLS MT FAIR      28  23  81 NE14      29.71F WCI  17
CHEYENNE WY    FAIR      35   8  32 NW13G23   29.85F
SCOTTSBLUFF NE FAIR      44  16  32 W15       29.87S
OMAHA NE       FAIR      38  32  79 NW9       29.83R
DES MOINES IA  CLOUDY    38  35  89 N9        29.76R
DAVENPORT IA   CLOUDY    40  37  89 NW8       29.68R
CHICAGO IL     LGT RAIN  43  38  82 N8        29.63R
EAU CLAIRE WI  CLOUDY    36  34  92 CALM      29.70R
LA CROSSE WI   CLOUDY    40  35  83 NW9       29.71R
$$

  *****  SOME NATIONAL WEATHER *****

CITY           SKY/WX    TMP DP  RH WIND       PRES   REMARKS
LA GUARDIA NY  CLOUDY    45  41  86 NE15      29.73S
RALEIGH NC     FOG       54  53  97 NE7       29.56F VSB 1/4
ATLANTA GA     CLOUDY    61  60  97 SE13G24   29.16F
NEW ORLEANS LA FAIR      63  40  42 W23G33    29.47R
OKLAHOMA CITY  FAIR      55  31  39 NW25      29.83R
ALBUQUERQUE NM PTSUNNY   43  20  39 NW5       30.10S
SALT LAKE CITY LGT SNOW  34  30  85 S18G24    29.84R FOG     WCI  23
LOS ANGELES CA HVY RAIN  51  51 100 E9G22     29.90F FOG
BOISE ID       CLOUDY    40  30  67 SE12      29.61S
SEATTLE WA     PTSUNNY   44  39  82 SE7       29.56R
$$

*** WEATHER ACROSS MANITOBA...SASKATCHEWAN AND ONTARIO ***
                ***ONTARIO***

CITY           SKY/WX    TMP DP  RH WIND       PRES   REMARKS
GERALDTON      FLURRIES  32  30  93 NE9       29.71R WCI  24
THUNDER BAY    LGT RAIN  34  34 100 W3        29.70S
SIOUX LOOKOUT  CLOUDY    34  32  93 VRB2      29.72R
TORONTO        CLOUDY    41  37  87 E8        29.72R
BIG TROUT LK   FLURRIES  28  27  93 E5        29.84F WCI  23
PICKLE LAKE    CLOUDY    28  27  93 E6        29.76R WCI  22
DRYDEN         CLOUDY    34  34 100 NE5       29.71R FOG
KENORA         FOG       36  36 100 CALM      29.71S VSB 1/4
$$
                *** MANITOBA***

CITY           SKY/WX    TMP DP  RH WIND       PRES   REMARKS
BRANDON        CLOUDY    28  25  86 W13       29.72R WCI  18
DAUPHIN        FLURRIES  32  28  86 W10       29.70R WCI  24
ISLAND LAKE    LGT SNOW  32  32 100 E2        29.77S VSB 1
PILOT MOUND      N/A     28  25  86 W8          N/A  WCI  20
THE PAS        FLURRIES  32  32 100 NE3       29.76R
THOMPSON       NOT AVBL
WINNIPEG       LGT SNOW  34  32  93 SW3       29.73R FOG
LYNN LAKE      FLURRIES  18  14  86 NE17      29.90R WCI   2
CHURCHILL      FOG       21  21 100 NE6       29.98R VSB 1/2 WCI  14
GILLAM         LGT SNOW  25  23  93 NE5       29.87R FOG     WCI  19
$$
                ***SASKATCHEWAN***

CITY           SKY/WX    TMP DP  RH WIND       PRES   REMARKS
ESTEVAN        CLOUDY    27  27 100 W14       29.76S WCI  15
KINDERSLEY     MOCLDY    19  16  86 N9        29.82R WCI   9
LLOYDMINSTER   LGT SNOW  18  16  93 N13       29.86R FOG     WCI   4
PRINCE ALBERT  LGT SNOW  23  19  86 N12       29.79S WCI  12
REGINA         FLURRIES  25  21  86 NW15      29.76R WCI  12
YORKTON        LGT SNOW  28  27  93 W12       29.69R WCI  18
N. BATTLEFORD  LGT SNOW  18  16  93 NW10      29.87R WCC1F1C2F2C3F3C4F4C5F5C6F6C7F7C8F8C9F9CaFaCbFbCcFcCdFdCe!



USA.gov is the U.S. government's official web portal to all federal, state and local government web resources and services.